LANDSAT 8

Last updated on Mon Sep 21 2026 00:02:45 GMT+0000 (Coordinated Universal Time)

1 39084U 13008A 26263.54456279 .00000158 00000+0 45121-4 0 9997 2 39084 98.2214 332.5029 0001323 94.5016 265.6334 14.57101884711782
UTC large
Height (km)
Speed (km/s)
/
Latitude / Longitude
Inclination (degrees)
Orbital Period (minutes)
Azimuth
Elevation
Range (km)
Doppler Factor

Next 0 passes for location: London (51.5072 / 0.1276)

No passes found over London.
LANDSAT 8